When you browse on this site, cookies collect data to enhance your experience and personalize the content and advertising you see.
Visit our Privacy Policy to learn more. By continuing to use the site, you agree to this use of cookies and data.
  • In France
  • List of Countries
  • For 7 days
  • Water Temperature
  • Weather Map
  • Weather Widgets
  • user-avatar
    Login

    Hourly Weather Buna

    Today, 19 August, Monday

    Time Temperature Precipitation Wind Pressure Humidity
    00:00 +21°C° 0 mm 1 mps 720 mmHg 54%
    01:00 +21°C° 0 mm 1 mps 720 mmHg 56%
    02:00 +21°C° 0 mm 1 mps 720 mmHg 56%
    03:00 +21°C° 0 mm 1 mps 719 mmHg 56%
    04:00 +20°C° 0 mm 1 mps 719 mmHg 56%
    05:00 +22°C° 0 mm 1 mps 720 mmHg 53%
    06:00 +23°C° 0 mm 1 mps 720 mmHg 51%
    07:00 +25°C° 0 mm 1 mps 720 mmHg 49%
    08:00 +27°C° 0 mm 1 mps 721 mmHg 44%
    09:00 +29°C° 0 mm 1 mps 721 mmHg 39%
    10:00 +31°C° 0 mm 1 mps 721 mmHg 35%
    11:00 +32°C° 0 mm 1 mps 721 mmHg 33%
    12:00 +34°C° 0 mm 2 mps 721 mmHg 32%
    13:00 +34°C° 0 mm 2 mps 721 mmHg 31%
    14:00 +34°C° 0 mm 2 mps 721 mmHg 33%
    15:00 +32°C° 0 mm 2 mps 721 mmHg 35%
    16:00 +32°C° 0 mm 2 mps 720 mmHg 37%
    17:00 +29°C° 0 mm 2 mps 720 mmHg 45%
    18:00 +27°C° 0 mm 1 mps 720 mmHg 53%
    19:00 +22°C° 0 mm 0 mps 720 mmHg 61%
    20:00 +24°C° 0 mm 1 mps 720 mmHg 61%
    21:00 +24°C° 0 mm 1 mps 720 mmHg 62%
    22:00 +23°C° 0 mm 1 mps 720 mmHg 62%
    23:00 +23°C° 0 mm 1 mps 720 mmHg 61%

    Tomorrow, 20 August, Tuesday

    Time Temperature Precipitation Wind Pressure Humidity
    00:00 +23°C° 0 mm 1 mps 720 mmHg 61%
    01:00 +23°C° 0 mm 1 mps 720 mmHg 60%
    02:00 +22°C° 0 mm 1 mps 720 mmHg 60%
    03:00 +22°C° 0 mm 1 mps 720 mmHg 59%
    04:00 +22°C° 0 mm 1 mps 721 mmHg 58%
    05:00 +23°C° 0 mm 1 mps 721 mmHg 55%
    06:00 +25°C° 0 mm 1 mps 721 mmHg 53%
    07:00 +26°C° 0 mm 1 mps 721 mmHg 51%
    08:00 +28°C° 0 mm 1 mps 722 mmHg 45%
    09:00 +31°C° 0 mm 1 mps 722 mmHg 39%
    10:00 +33°C° 0 mm 1 mps 722 mmHg 33%
    11:00 +34°C° 0 mm 1 mps 722 mmHg 32%
    12:00 +35°C° 0 mm 2 mps 722 mmHg 31%
    13:00 +36°C° 0 mm 2 mps 722 mmHg 30%
    14:00 +35°C° 0 mm 2 mps 722 mmHg 32%
    15:00 +35°C° 0 mm 2 mps 721 mmHg 33%
    16:00 +34°C° 0 mm 2 mps 721 mmHg 35%
    17:00 +31°C° 0 mm 2 mps 721 mmHg 43%
    18:00 +28°C° 0 mm 1 mps 721 mmHg 50%
    19:00 +23°C° 0 mm 0 mps 720 mmHg 58%
    20:00 +23°C° 0 mm 0 mps 720 mmHg 58%
    21:00 +25°C° 0 mm 1 mps 721 mmHg 58%
    22:00 +24°C° 0 mm 1 mps 721 mmHg 58%
    23:00 +24°C° 0 mm 1 mps 721 mmHg 58%

    Day after tomorrow, 21 August, Wednesday

    Time Temperature Precipitation Wind Pressure Humidity
    00:00 +24°C° 0 mm 1 mps 721 mmHg 58%
    01:00 +24°C° 0 mm 1 mps 721 mmHg 57%
    02:00 +23°C° 0 mm 1 mps 720 mmHg 58%
    03:00 +23°C° 0 mm 1 mps 720 mmHg 58%
    04:00 +23°C° 0 mm 1 mps 720 mmHg 58%
    05:00 +24°C° 0 mm 1 mps 721 mmHg 56%
    06:00 +25°C° 0 mm 1 mps 721 mmHg 53%
    07:00 +27°C° 0 mm 1 mps 721 mmHg 50%
    08:00 +29°C° 0 mm 1 mps 721 mmHg 45%
    09:00 +31°C° 0 mm 1 mps 722 mmHg 40%
    10:00 +34°C° 0 mm 1 mps 722 mmHg 34%
    11:00 +34°C° 0 mm 1 mps 722 mmHg 33%
    12:00 +36°C° 0 mm 2 mps 722 mmHg 32%
    13:00 +36°C° 0 mm 2 mps 721 mmHg 31%
    14:00 +35°C° 0 mm 2 mps 721 mmHg 34%
    15:00 +34°C° 0 mm 2 mps 721 mmHg 36%
    16:00 +32°C° 0 mm 2 mps 721 mmHg 39%
    17:00 +30°C° 0 mm 2 mps 721 mmHg 46%
    18:00 +28°C° 0 mm 2 mps 721 mmHg 52%
    19:00 +26°C° 0 mm 1 mps 720 mmHg 59%
    20:00 +26°C° 0 mm 2 mps 721 mmHg 61%
    21:00 +25°C° 0 mm 2 mps 721 mmHg 63%
    22:00 +24°C° 0 mm 3 mps 721 mmHg 64%
    23:00 +24°C° 0 mm 3 mps 721 mmHg 67%

    22 August, Thursday

    Time Temperature Precipitation Wind Pressure Humidity
    00:00 +22°C° 0 mm 3 mps 721 mmHg 69%
    01:00 +22°C° 0 mm 3 mps 721 mmHg 72%
    02:00 +21°C° 0 mm 3 mps 721 mmHg 73%
    03:00 +21°C° 0 mm 2 mps 720 mmHg 75%
    04:00 +21°C° 0 mm 2 mps 720 mmHg 76%
    05:00 +23°C° 0 mm 2 mps 721 mmHg 72%
    06:00 +24°C° 0 mm 2 mps 721 mmHg 68%
    07:00 +26°C° 0 mm 2 mps 721 mmHg 64%
    08:00 +28°C° 0 mm 2 mps 721 mmHg 53%
    09:00 +31°C° 0 mm 1 mps 722 mmHg 43%
    10:00 +34°C° 0 mm 1 mps 722 mmHg 33%
    11:00 +34°C° 0 mm 1 mps 722 mmHg 31%
    12:00 +35°C° 0 mm 1 mps 722 mmHg 29%
    13:00 +36°C° 0 mm 2 mps 721 mmHg 27%
    14:00 +35°C° 0 mm 2 mps 721 mmHg 30%
    15:00 +34°C° 0 mm 2 mps 721 mmHg 33%
    16:00 +32°C° 0 mm 2 mps 720 mmHg 36%
    17:00 +31°C° 0 mm 2 mps 721 mmHg 41%
    18:00 +29°C° 0 mm 2 mps 721 mmHg 45%
    19:00 +27°C° 0 mm 1 mps 721 mmHg 50%
    20:00 +26°C° 0 mm 2 mps 721 mmHg 54%
    21:00 +25°C° 0 mm 2 mps 721 mmHg 59%
    22:00 +24°C° 0 mm 3 mps 721 mmHg 63%
    23:00 +22°C° 0 mm 3 mps 721 mmHg 65%

    23 August, Friday

    Time Temperature Precipitation Wind Pressure Humidity
    00:00 +22°C° 0 mm 3 mps 721 mmHg 67%
    01:00 +21°C° 0 mm 3 mps 720 mmHg 69%
    02:00 +21°C° 0 mm 3 mps 720 mmHg 69%
    03:00 +21°C° 0 mm 2 mps 720 mmHg 70%
    04:00 +21°C° 0 mm 2 mps 720 mmHg 71%
    05:00 +23°C° 0 mm 2 mps 720 mmHg 68%
    06:00 +24°C° 0 mm 2 mps 721 mmHg 64%
    07:00 +25°C° 0 mm 2 mps 721 mmHg 61%
    08:00 +28°C° 0 mm 2 mps 721 mmHg 53%
    09:00 +30°C° 0 mm 2 mps 722 mmHg 45%
    10:00 +34°C° 0 mm 2 mps 722 mmHg 37%
    11:00 +34°C° 0 mm 2 mps 722 mmHg 36%
    12:00 +34°C° 0 mm 2 mps 722 mmHg 35%
    13:00 +34°C° 0 mm 2 mps 721 mmHg 33%
    14:00 +32°C° 0.2 mm 2 mps 721 mmHg 38%
    15:00 +31°C° 0.2 mm 3 mps 721 mmHg 42%
    16:00 +30°C° 0.2 mm 3 mps 720 mmHg 47%
    17:00 +28°C° 0.6 mm 3 mps 720 mmHg 56%
    18:00 +25°C° 0.6 mm 3 mps 720 mmHg 65%
    19:00 +22°C° 0.6 mm 3 mps 720 mmHg 74%
    20:00 +22°C° 0.3 mm 3 mps 720 mmHg 75%
    21:00 +21°C° 0.3 mm 3 mps 720 mmHg 77%
    22:00 +21°C° 0.3 mm 3 mps 720 mmHg 78%
    23:00 +21°C° 0.2 mm 3 mps 720 mmHg 78%

    24 August, Saturday

    Time Temperature Precipitation Wind Pressure Humidity
    00:00 +20°C° 0.2 mm 3 mps 720 mmHg 78%
    01:00 +20°C° 0.2 mm 2 mps 720 mmHg 79%
    02:00 +20°C° 0 mm 2 mps 720 mmHg 78%
    03:00 +20°C° 0 mm 2 mps 719 mmHg 78%
    04:00 +19°C° 0 mm 2 mps 719 mmHg 77%
    05:00 +21°C° 0 mm 2 mps 719 mmHg 74%
    06:00 +23°C° 0 mm 2 mps 719 mmHg 70%
    07:00 +24°C° 0 mm 2 mps 720 mmHg 67%
    08:00 +27°C° 0 mm 1 mps 720 mmHg 58%
    09:00 +29°C° 0 mm 1 mps 720 mmHg 48%
    10:00 +32°C° 0 mm 1 mps 721 mmHg 39%
    11:00 +32°C° 0.1 mm 2 mps 720 mmHg 39%
    12:00 +32°C° 0.1 mm 2 mps 720 mmHg 39%
    13:00 +33°C° 0.1 mm 3 mps 720 mmHg 38%
    14:00 +30°C° 1.9 mm 3 mps 720 mmHg 47%
    15:00 +27°C° 1.9 mm 3 mps 720 mmHg 56%
    16:00 +25°C° 1.9 mm 3 mps 719 mmHg 65%
    17:00 +24°C° 0.1 mm 3 mps 719 mmHg 69%
    18:00 +23°C° 0.1 mm 2 mps 719 mmHg 72%
    19:00 +21°C° 0.1 mm 2 mps 719 mmHg 76%
    20:00 +20°C° 0 mm 2 mps 719 mmHg 76%
    21:00 +20°C° 0 mm 2 mps 719 mmHg 75%
    22:00 +19°C° 0 mm 2 mps 719 mmHg 75%
    23:00 +19°C° 0 mm 2 mps 719 mmHg 72%
    Show more